User: anonymous   Login
Location: Sungai Laei
(2.6000°N, 113.7167°E)
Time: 09:43:17
(UTC+00:00)
Language:

Cosmos 1633 - Orbit

View from above orbital plane
View from above orbital plane
View from above satellite
View from above satellite

Ground track
Ground track

The orbit data is extracted from the following two-line orbital elements,

1 15592U 85020A   22228.06513127  .00008188  00000-0  22358-3 0  9996
2 15592  82.5345 222.0211 0009587 329.5262  30.5423 15.37196164 52860
Epoch (UTC): 16 August 2022 01:33:47
Eccentricity: 0.0009587
inclination: 82.5345°
perigee height: 448 km
apogee height: 461 km
right ascension of ascending node: 222.0211°
argument of perigee: 329.5262°
revolutions per day: 15.37196164
mean anomaly at epoch: 30.5423°
orbit number at epoch: 5286

The dashed part of the orbit path shows where the satellite is in the earth's shadow,  

DLR